sat.trackr.live / text

‹ back to catalog

ONEWEB-0549

NORAD 56051 · 2023-043F

PAYLOAD ACTIVE UNKNOWN

§ Identity

Operator
Country
UK
Launch date
2023-03-26
Launch site
SRILR
Launch vehicle
Mass (kg)
RCS (m²)

Purposes: comms

External: N2YO · Heavens-Above · Gunter

§ Orbital elements

Epoch: 2026-05-25T05:31:57.239040Z

Period
108.94 min
Inclination
87.9251°
Eccentricity
0.0001669
Mean motion
13.21827580 rev/d
Perigee alt
1,176.5 km
Apogee alt
1,179.0 km
Semi-major
7,555.9 km
B*
2.4204e-4
RAAN
248.5485°
Arg perigee
108.4402°
Mean anomaly
251.6914°
Rev number
15,519

§ Raw data

ONEWEB-05491 56051U 23043F   26145.23052360  .00000113  00000+0  24204-3 0  99972 56051  87.9251 248.5485 0001669 108.4402 251.6914 13.21827580155194

JSON: /api/v1/satellites/56051 · /tle

For live sub-satellite position, see the globe view (requires WebGL).

§ Visibility from observer

Set your observer location to see the next 7 days of passes ≥ 10°. The values pass through the URL so the page stays shareable.

No JS? Fill the form by hand. The geolocation button needs JavaScript.